Temp
88 88 87 89 89 90 89 89 89 91 91 90 91 92 93 92 90 89 88 86 84 84 85 85 85 85 85 85 85 85 86 85 85 85 85 85 86 85 86 87 87 85 87 87 86 86 87 88 89 89 88 88 88 88 88 88 87 89 88 88 87 86 86
90 90 91 91 89 89 89 89 89 91 92 91 90 90 92 92 90 90 88 86 85 85 85 86 85 85 85 85 86 85 85 85 85 85 86 84 85 85 87 86 86 85 85 87 87 87 88 89 89 89 89 88 89 88 89 88 87 87 87 86 86 85 86
91 92 91 89 89 89 88 90 90 91 91 92 92 92 91 89 90 89 89 87 85 85 86 86 85 86 86 85 85 85 86 86 86 86 86 87 87 90 88 87 87 87 89 88 88 89 90 90 88 88 89 89 90 88 88 88 87 87 87 86 86 86 85
87 88 90 91 90 89 90 91 90 92 93 94 94 94 92 89 92 91 91 89 87 86 85 86 87 87 86 85 86 85 86 86 87 88 89 89 88 89 88 87 87 89 88 88 91 91 93 90 90 88 89 88 88 89 89 88 89 87 87 86 86 87 85
90 92 91 89 90 90 91 91 91 89 91 95 94 92 93 93 94 94 93 92 91 88 88 88 89 88 87 87 88 88 87 87 87 88 89 89 88 88 88 90 89 89 89 91 89 87 87 88 90 88 88 87 89 88 88 88 88 87 86 86 85 86 86
92 91 90 90 90 91 91 92 93 92 92 93 95 93 93 94 95 96 95 93 91 90 89 88 89 88 87 88 88 88 87 87 87 87 88 88 87 88 89 89 90 90 91 90 91 90 90 89 90 89 90 91 91 90 90 89 89 89 87 86 85 87 87
91 92 92 90 91 91 92 92 92 93 93 94 90 86 84 84 86 91 94 95 93 90 90 90 90 90 88 88 88 87 87 88 88 89 89 90 89 89 88 89 89 90 91 90 90 90 91 89 89 89 89 90 89 90 88 87 87 88 87 85 85 85 85
92 92 93 92 93 93 93 92 93 94 94 91 88 84 81 80 81 80 79 88 93 93 92 91 90 89 88 88 89 89 88 88 89 89 89 90 90 89 90 90 89 90 90 91 90 91 92 89 92 90 90 91 89 88 89 87 86 90 88 86 85 86 88
98 95 97 94 93 95 95 93 93 92 90 88 87 84 83 83 82 82 81 85 93 93 92 92 92 91 89 89 88 88 89 89 89 89 89 90 91 92 92 92 91 91 90 92 93 91 91 91 92 88 88 89 88 87 88 87 88 88 88 86 85 85 87
98 96 96 97 95 95 94 94 93 90 88 88 86 85 85 84 84 84 86 89 91 94 93 93 93 92 90 90 90 90 89 88 89 90 90 90 91 92 93 93 93 92 92 93 94 93 91 91 91 89 87 88 87 87 87 87 88 88 89 87 87 86 85
99 94 95 95 93 93 92 94 92 89 89 87 87 89 86 87 87 89 90 90 90 90 94 94 94 93 91 91 91 91 89 90 90 90 90 91 92 93 94 94 94 93 93 93 93 94 92 90 90 88 87 89 88 88 88 88 88 87 89 89 89 87 88
95 95 92 94 91 91 91 90 91 89 89 88 90 89 87 87 91 93 92 90 92 90 92 95 95 94 92 92 91 90 90 90 91 90 90 91 92 93 94 95 94 94 93 94 93 93 95 91 92 90 88 88 89 88 88 87 88 87 88 90 90 88 89
98 94 93 95 91 92 90 88 89 89 88 92 93 93 91 91 93 95 91 90 94 94 92 93 94 93 93 92 92 90 91 91 91 91 91 91 93 94 94 95 96 95 94 94 94 94 95 94 91 90 90 88 89 89 88 88 89 87 87 88 88 88 88
96 97 97 94 91 90 89 89 89 89 89 91 93 94 94 94 94 94 92 92 92 94 93 93 95 94 92 91 91 89 91 91 92 92 91 91 90 92 94 95 95 94 93 93 93 94 95 95 93 92 92 90 90 89 88 88 88 87 87 87 88 88 88
97 98 97 95 90 89 89 89 88 88 90 92 94 93 94 94 94 93 92 93 91 94 93 94 96 94 93 91 90 88 90 90 92 91 90 89 88 89 91 93 93 93 93 92 93 95 95 96 96 92 91 91 90 89 90 90 89 89 88 87 87 88 89
92 95 96 97 94 92 91 91 89 88 89 89 92 93 95 94 92 93 93 92 93 89 91 95 95 93 93 92 90 90 90 89 89 90 89 88 87 87 89 93 93 95 93 92 93 92 91 92 93 94 92 91 90 90 90 90 90 84 78 80 87 87 90
91 92 92 91 89 90 90 92 94 91 89 88 90 92 93 93 92 94 95 94 94 94 96 96 94 95 94 91 92 90 89 88 88 88 87 87 87 88 88 90 92 91 90 90 91 90 89 91 92 94 94 92 91 90 90 92 91 77 71 73 77 86 87
88 89 90 91 91 89 91 91 92 92 89 92 91 91 94 92 94 95 96 96 96 95 92 92 96 96 92 92 90 89 88 89 88 87 87 87 87 87 88 90 90 89 88 90 91 88 91 92 91 90 93 93 92 92 91 91 82 71 70 71 71 78 87
87 88 90 91 90 88 90 91 90 89 92 90 86 81 80 81 86 92 95 95 96 96 96 98 98 94 91 93 91 89 88 88 88 87 87 87 87 87 87 87 88 89 90 91 91 91 88 88 90 90 91 92 90 91 92 92 79 68 68 69 69 70 81
87 87 86 87 89 90 89 88 89 90 91 91 92 91 90 84 80 91 96 96 96 96 95 94 96 95 93 92 90 89 88 88 88 87 87 87 87 87 87 87 87 91 93 92 90 88 89 91 89 89 88 89 89 88 92 92 77 66 66 67 67 69 74
82 83 85 86 86 87 87 87 88 90 91 94 92 92 96 96 99 97 92 82 80 83 89 95 96 95 93 92 90 89 89 88 88 87 87 87 87 86 87 87 87 89 91 92 91 89 88 90 89 88 89 90 91 90 92 95 71 64 64 65 65 67 71
80 81 82 83 84 85 85 89 89 91 91 92 94 95 95 96 98 99 96 86 87 86 85 89 92 95 93 91 91 90 89 89 88 87 87 87 87 87 86 86 86 86 88 90 92 92 91 89 91 90 90 89 90 92 90 95 66 64 63 64 64 66 77
79 79 81 82 84 85 85 87 89 91 91 93 94 95 94 95 99 97 95 97 97 93 94 90 87 93 91 92 92 91 90 90 89 88 87 87 87 87 87 86 86 87 88 89 90 90 90 89 91 89 91 90 89 90 89 91 67 62 61 62 62 67 80
78 79 80 81 82 84 86 88 89 91 93 94 94 95 95 95 96 97 95 95 97 95 94 94 93 93 91 91 92 90 90 89 89 88 88 87 87 87 87 88 88 88 88 88 89 90 92 91 90 91 91 91 91 91 89 92 71 58 60 61 60 70 81
75 76 77 79 80 81 84 85 86 89 90 91 91 92 93 94 94 96 94 92 97 96 94 92 92 93 91 92 93 91 90 90 89 89 88 87 87 88 87 87 87 88 88 90 90 91 90 90 90 91 91 93 93 83 88 93 76 55 60 58 58 70 83
71 72 74 77 79 81 80 81 82 85 90 91 91 94 94 94 94 92 92 95 96 95 94 93 93 94 94 94 92 91 89 90 88 88 89 88 87 87 87 87 88 88 89 90 91 91 92 92 91 90 91 93 93 91 91 91 87 65 57 57 57 63 82
71 72 72 74 76 75 78 81 84 87 90 91 90 94 96 97 96 93 92 92 93 94 96 96 95 93 93 91 93 92 89 90 89 89 89 89 88 88 88 88 88 89 88 90 92 91 90 91 91 92 90 92 90 92 93 92 90 72 56 56 56 59 70
69 69 72 72 72 74 77 80 82 86 91 92 94 96 96 94 91 89 89 91 92 94 98 96 93 93 92 90 91 92 89 89 89 90 90 90 89 87 87 88 90 89 89 91 89 87 87 87 88 89 89 90 91 91 91 88 82 83 58 57 55 58 62
65 65 66 68 70 74 76 77 79 84 89 92 94 95 96 98 91 89 90 90 91 96 96 95 95 93 91 90 90 89 89 88 89 89 92 91 89 88 87 88 88 88 87 86 86 86 86 86 87 88 88 88 90 91 91 89 85 73 68 56 55 55 58
64 64 66 68 70 71 73 74 79 84 88 90 90 92 94 94 89 88 89 90 93 95 95 93 92 90 90 89 89 90 89 89 91 91 92 90 89 88 87 86 87 86 86 86 86 86 85 86 86 87 88 89 89 91 91 89 89 72 66 63 55 55 56
62 63 63 64 67 69 71 75 80 83 85 88 90 90 89 91 90 89 89 91 91 91 92 91 90 90 90 90 90 89 89 90 89 89 90 91 90 87 87 87 87 86 86 86 86 86 85 85 86 85 86 87 86 88 89 90 90 84 68 61 57 56 55
62 62 63 65 66 68 70 76 81 83 84 86 89 87 87 91 92 90 89 93 91 93 93 91 89 88 88 89 89 90 91 89 90 90 91 91 91 89 88 88 88 87 86 86 85 85 85 84 86 85 86 86 87 88 89 89 90 86 76 65 61 59 56
60 60 60 61 64 66 70 76 79 81 82 82 84 87 88 90 95 93 91 91 94 95 91 90 88 87 87 88 90 90 89 89 90 91 91 91 91 90 89 88 88 87 85 85 86 86 86 85 85 85 86 86 88 88 88 89 90 88 82 74 72 70 67
58 59 60 62 64 67 72 74 76 78 81 81 84 85 86 87 92 95 94 96 97 96 90 88 88 88 88 90 90 90 90 89 86 87 90 90 90 90 89 89 90 89 86 86 87 87 86 87 86 86 87 87 88 88 88 89 89 90 86 80 78 75 74
59 59 60 61 64 67 70 73 75 78 79 81 83 85 84 86 86 93 92 93 94 91 89 87 86 87 88 88 88 88 87 88 87 88 90 90 89 89 83 87 92 89 88 91 91 90 90 90 90 89 91 90 88 88 87 88 88 90 79 84 71 78 80
59 59 60 63 65 67 69 71 72 76 79 80 82 82 84 83 85 86 92 93 92 91 88 86 86 87 88 88 88 89 88 87 89 89 89 92 89 74 66 51 46 58 82 90 69 64 68 73 87 90 90 89 88 89 88 87 90 76 68 61 61 62 65
59 59 60 62 64 66 67 69 71 73 77 79 80 81 82 83 83 84 85 86 89 90 88 87 85 86 88 87 88 87 88 88 89 88 88 90 86 80 76 73 67 49 42 50 56 52 46 50 56 63 70 84 91 75 58 68 69 62 60 54 57 57 57
61 61 61 63 64 65 67 66 68 70 75 79 79 78 78 81 83 81 83 84 85 87 88 87 85 85 86 87 87 85 85 89 87 88 88 88 84 81 79 79 75 69 51 44 47 46 44 43 44 45 51 59 70 80 75 59 54 52 53 53 55 55 54
MSLP
1004.54 1004.94 1005.18 1005.18 1005.54 1005.94 1006.22 1006.34 1006.42 1006.50 1006.46 1006.74 1007.10 1007.42 1007.62 1007.94 1008.34 1008.74 1009.34 1009.94 1010.54 1011.02 1011.14 1011.30 1011.62 1011.94 1012.30 1012.50 1012.66 1012.82 1013.02 1013.38 1013.66 1014.06 1014.34 1014.54 1014.62 1014.86 1015.30 1015.46 1015.74 1015.90 1015.90 1016.30 1016.38 1016.46 1016.30 1016.18 1016.26 1016.42 1016.66 1016.98 1017.30 1017.42 1017.46 1017.58 1017.82 1017.90 1017.98 1018.10 1018.30 1018.46 1018.54
1003.78 1004.18 1004.30 1004.58 1005.14 1005.46 1005.58 1005.74 1005.90 1005.86 1005.98 1006.30 1006.66 1007.06 1007.22 1007.54 1007.98 1008.38 1008.82 1009.38 1009.98 1010.42 1010.66 1010.94 1011.30 1011.54 1011.78 1012.06 1012.22 1012.50 1012.86 1013.06 1013.30 1013.58 1013.90 1014.26 1014.38 1014.54 1014.66 1015.02 1015.26 1015.54 1015.54 1015.58 1015.74 1015.86 1015.94 1016.02 1016.06 1016.26 1016.54 1016.74 1017.06 1017.14 1017.30 1017.50 1017.70 1017.86 1018.02 1018.14 1018.38 1018.54 1018.62
1002.90 1003.10 1003.82 1004.50 1004.78 1005.02 1005.30 1005.34 1005.54 1005.46 1005.58 1005.90 1006.14 1006.54 1006.86 1007.18 1007.42 1007.86 1008.38 1009.06 1009.74 1010.10 1010.30 1010.54 1010.74 1011.02 1011.26 1011.62 1011.98 1012.26 1012.42 1012.70 1013.02 1013.38 1013.74 1014.02 1014.22 1014.26 1014.30 1014.54 1014.78 1015.06 1015.10 1015.10 1015.22 1015.46 1015.50 1015.74 1015.86 1015.98 1016.22 1016.54 1016.78 1016.98 1017.10 1017.34 1017.54 1017.70 1017.82 1017.94 1018.22 1018.46 1018.62
1002.94 1003.14 1003.26 1003.42 1003.98 1004.30 1004.50 1004.70 1005.02 1005.14 1004.98 1005.02 1005.38 1005.82 1006.38 1006.78 1006.78 1007.26 1007.78 1008.38 1009.18 1009.74 1010.22 1010.26 1010.46 1010.78 1011.02 1011.30 1011.66 1011.90 1012.14 1012.30 1012.50 1012.82 1013.10 1013.34 1013.74 1013.86 1014.14 1014.34 1014.50 1014.58 1014.90 1015.02 1014.94 1014.94 1014.98 1015.34 1015.66 1015.90 1015.98 1016.30 1016.50 1016.66 1016.90 1017.14 1017.30 1017.50 1017.66 1017.82 1018.06 1018.18 1018.34
1002.02 1002.02 1002.58 1003.34 1003.62 1003.94 1004.10 1004.26 1004.50 1004.74 1004.74 1004.50 1004.86 1005.30 1005.66 1005.98 1006.22 1006.78 1007.38 1007.86 1008.46 1009.14 1009.30 1009.58 1009.86 1010.22 1010.50 1010.66 1010.98 1011.26 1011.54 1011.82 1012.10 1012.30 1012.58 1012.78 1013.10 1013.42 1013.82 1014.06 1014.22 1014.42 1014.46 1014.54 1014.62 1014.78 1014.90 1015.10 1015.42 1015.70 1015.94 1016.06 1016.30 1016.46 1016.74 1016.86 1017.06 1017.22 1017.50 1017.66 1018.02 1018.02 1018.18
1001.30 1001.78 1002.38 1002.66 1003.10 1003.26 1003.50 1003.54 1003.66 1004.10 1004.46 1004.66 1004.74 1005.10 1005.34 1005.70 1005.94 1006.50 1007.02 1007.58 1008.14 1008.62 1009.06 1009.34 1009.58 1009.74 1010.18 1010.18 1010.38 1010.74 1011.06 1011.34 1011.54 1011.78 1012.14 1012.42 1012.78 1013.18 1013.46 1013.62 1013.78 1014.02 1014.22 1014.30 1014.26 1014.50 1014.62 1014.86 1015.06 1015.38 1015.74 1015.86 1016.02 1016.22 1016.38 1016.66 1016.82 1016.94 1017.26 1017.46 1017.74 1017.86 1018.02
1001.14 1001.18 1001.26 1002.06 1002.22 1002.62 1002.90 1003.22 1003.38 1003.62 1003.94 1004.30 1004.98 1005.42 1005.86 1005.98 1006.46 1006.86 1006.98 1007.22 1007.66 1008.38 1008.70 1008.90 1008.94 1009.14 1009.54 1009.70 1009.94 1010.26 1010.70 1010.94 1011.18 1011.50 1011.70 1012.02 1012.26 1012.70 1012.94 1013.10 1013.26 1013.46 1013.58 1013.74 1014.02 1014.10 1014.46 1014.70 1014.78 1014.98 1015.30 1015.54 1015.82 1015.98 1016.14 1016.38 1016.62 1016.66 1016.94 1017.30 1017.58 1017.66 1017.74
999.82 1000.46 1000.42 1001.02 1001.66 1001.90 1002.38 1002.70 1002.82 1002.98 1003.42 1004.10 1005.06 1005.78 1006.18 1006.06 1006.22 1007.78 1009.22 1008.30 1007.38 1007.66 1007.98 1008.30 1008.50 1008.62 1008.94 1009.10 1009.30 1009.70 1010.14 1010.38 1010.58 1010.90 1011.22 1011.66 1011.90 1012.26 1012.50 1012.74 1012.90 1012.98 1013.22 1013.58 1013.62 1013.74 1014.06 1014.34 1014.46 1014.62 1014.86 1015.22 1015.54 1015.70 1015.78 1015.98 1016.22 1016.38 1016.62 1017.10 1017.42 1017.58 1017.50
998.14 998.70 999.06 1000.14 1000.86 1001.18 1001.54 1001.98 1002.34 1002.74 1003.34 1003.90 1004.62 1005.38 1005.90 1006.42 1006.50 1006.74 1007.86 1008.26 1007.38 1007.34 1007.42 1007.42 1007.62 1007.78 1008.22 1008.58 1008.86 1009.22 1009.50 1009.86 1010.30 1010.58 1010.94 1011.30 1011.54 1011.82 1011.98 1012.22 1012.42 1012.50 1012.90 1013.14 1013.26 1013.30 1013.54 1013.86 1014.10 1014.38 1014.58 1014.90 1015.14 1015.42 1015.58 1015.70 1015.94 1016.06 1016.34 1016.70 1017.06 1017.38 1017.42
997.34 997.86 998.14 998.86 999.78 1000.50 1000.90 1001.34 1001.78 1002.54 1003.38 1003.90 1004.42 1005.02 1005.42 1005.82 1006.14 1006.54 1006.90 1007.22 1007.14 1006.94 1006.90 1006.94 1007.14 1007.38 1007.78 1008.06 1008.30 1008.54 1008.98 1009.46 1009.74 1010.18 1010.54 1010.94 1011.02 1011.30 1011.42 1011.58 1011.90 1012.06 1012.42 1012.66 1012.78 1013.06 1013.18 1013.30 1013.66 1014.06 1014.42 1014.70 1014.94 1015.14 1015.34 1015.50 1015.66 1015.82 1015.98 1016.30 1016.62 1016.94 1017.22
996.66 997.14 997.66 998.58 999.70 1000.18 1000.58 1000.90 1001.54 1002.18 1002.70 1003.26 1003.74 1004.06 1004.70 1005.18 1005.46 1005.66 1005.74 1006.02 1006.70 1007.02 1006.46 1006.38 1006.42 1006.82 1007.22 1007.54 1007.94 1008.14 1008.58 1008.90 1009.18 1009.66 1010.06 1010.34 1010.42 1010.70 1010.86 1011.06 1011.34 1011.58 1011.94 1012.22 1012.46 1012.50 1012.78 1013.10 1013.22 1013.74 1014.10 1014.46 1014.70 1014.86 1015.06 1015.18 1015.34 1015.62 1015.78 1015.86 1016.02 1016.38 1016.70
996.70 996.90 997.46 997.90 999.30 1000.30 1000.94 1001.10 1001.26 1001.66 1002.10 1002.50 1002.94 1003.42 1003.90 1004.34 1004.46 1004.42 1004.74 1005.18 1005.26 1006.38 1006.54 1006.06 1005.90 1006.14 1006.62 1007.06 1007.50 1007.82 1008.10 1008.38 1008.66 1009.06 1009.38 1009.62 1009.82 1010.06 1010.30 1010.50 1010.78 1011.14 1011.42 1011.66 1012.02 1012.14 1012.26 1012.74 1012.98 1013.26 1013.70 1013.94 1014.18 1014.38 1014.58 1014.74 1014.94 1015.22 1015.42 1015.58 1015.70 1015.94 1016.18
996.58 996.90 997.54 997.98 999.22 999.58 1000.02 1000.70 1001.14 1001.42 1001.74 1002.02 1002.30 1002.58 1003.10 1003.54 1003.62 1003.54 1004.06 1004.70 1004.66 1005.18 1006.02 1005.70 1005.50 1005.58 1006.10 1006.50 1006.78 1007.22 1007.58 1007.86 1008.06 1008.30 1008.70 1008.98 1009.22 1009.34 1009.66 1009.98 1010.18 1010.54 1010.98 1011.14 1011.46 1011.78 1011.94 1012.18 1012.66 1012.82 1013.14 1013.46 1013.70 1013.98 1014.18 1014.42 1014.58 1014.86 1015.10 1015.22 1015.38 1015.62 1015.90
996.34 996.66 996.82 997.46 998.78 999.54 1000.22 1000.58 1000.82 1001.34 1001.74 1001.90 1002.06 1002.10 1002.38 1002.66 1002.82 1003.02 1003.54 1004.06 1004.18 1004.54 1005.34 1005.50 1005.02 1005.18 1005.58 1005.94 1006.30 1006.62 1006.90 1007.10 1007.26 1007.66 1007.98 1008.30 1008.62 1008.86 1009.10 1009.38 1009.66 1009.94 1010.22 1010.62 1011.10 1011.38 1011.46 1011.70 1012.18 1012.46 1012.66 1012.98 1013.30 1013.50 1013.70 1014.02 1014.30 1014.54 1014.74 1014.90 1015.06 1015.26 1015.54
997.94 997.82 997.70 998.18 999.06 999.66 1000.30 1000.74 1000.98 1001.26 1001.34 1001.42 1001.54 1001.94 1002.10 1002.34 1002.42 1002.58 1002.98 1003.18 1003.74 1004.30 1004.90 1004.78 1004.58 1004.74 1005.10 1005.50 1005.82 1006.02 1006.14 1006.42 1006.74 1007.10 1007.54 1007.90 1008.30 1008.58 1008.78 1008.98 1009.22 1009.42 1009.74 1010.14 1010.54 1010.70 1010.90 1011.02 1011.34 1012.02 1012.46 1012.62 1012.94 1013.22 1013.38 1013.66 1013.94 1014.06 1014.34 1014.66 1014.82 1014.82 1015.10
1000.30 999.54 999.10 998.98 999.50 1000.10 1000.06 1000.34 1000.82 1000.98 1001.02 1001.26 1001.42 1001.54 1001.66 1001.82 1002.14 1002.38 1002.66 1003.02 1003.34 1004.22 1004.70 1004.38 1004.34 1004.42 1004.66 1005.06 1005.26 1005.38 1005.62 1005.98 1006.34 1006.74 1007.14 1007.66 1008.10 1008.34 1008.50 1008.66 1008.86 1009.10 1009.42 1009.74 1010.02 1010.30 1010.50 1010.70 1010.86 1011.34 1011.98 1012.46 1012.70 1012.94 1013.14 1013.30 1013.34 1013.46 1013.70 1013.94 1014.30 1014.58 1014.62
1001.02 1000.82 1000.58 1000.50 1000.78 1001.22 1001.02 1000.42 1000.26 1000.70 1001.06 1001.30 1001.18 1001.22 1001.22 1001.38 1001.58 1001.78 1002.14 1002.62 1003.02 1003.38 1003.50 1003.78 1003.90 1003.94 1004.10 1004.54 1004.62 1004.94 1005.30 1005.74 1006.10 1006.38 1006.86 1007.18 1007.58 1007.94 1008.26 1008.38 1008.54 1008.86 1009.22 1009.46 1009.70 1010.02 1010.26 1010.42 1010.74 1010.90 1011.30 1011.86 1012.26 1012.66 1012.82 1012.86 1012.78 1013.06 1013.42 1013.70 1013.86 1014.14 1014.42
1001.94 1001.58 1001.30 1001.34 1001.46 1001.74 1001.22 1001.10 1000.78 1000.94 1001.50 1001.22 1001.34 1001.46 1001.30 1001.46 1001.50 1001.74 1001.94 1002.02 1002.34 1002.86 1003.74 1004.38 1003.82 1003.54 1003.74 1003.94 1004.34 1004.66 1005.02 1005.30 1005.66 1006.10 1006.46 1006.78 1007.22 1007.54 1007.82 1008.06 1008.30 1008.66 1008.94 1009.18 1009.50 1009.70 1009.86 1010.30 1010.46 1010.58 1010.74 1011.18 1011.66 1012.06 1012.30 1012.38 1012.34 1012.70 1013.10 1013.42 1013.66 1013.82 1014.02
1002.38 1002.18 1001.62 1001.22 1001.30 1001.82 1001.78 1001.58 1001.42 1001.18 1001.02 1001.18 1001.34 1002.30 1002.62 1002.86 1003.14 1001.86 1001.38 1001.38 1001.58 1001.82 1002.62 1002.62 1002.82 1003.10 1003.54 1003.58 1003.94 1004.30 1004.54 1004.86 1005.30 1005.70 1006.06 1006.34 1006.62 1007.02 1007.42 1007.86 1008.14 1008.42 1008.70 1008.98 1008.98 1009.30 1009.82 1010.06 1010.26 1010.50 1010.42 1010.66 1011.22 1011.58 1011.70 1011.90 1011.90 1012.38 1012.74 1013.10 1013.38 1013.62 1013.78
1002.90 1002.86 1002.86 1002.70 1002.06 1001.90 1001.86 1001.74 1001.50 1001.34 1001.18 1001.06 1000.94 1001.02 1001.34 1002.46 1004.06 1002.42 1001.26 1001.26 1001.38 1001.74 1001.90 1002.30 1002.06 1002.42 1002.94 1003.14 1003.50 1003.86 1004.18 1004.54 1004.94 1005.34 1005.58 1005.82 1006.22 1006.66 1007.14 1007.54 1007.90 1007.94 1008.06 1008.42 1008.70 1009.18 1009.54 1009.74 1010.10 1010.22 1010.42 1010.46 1010.74 1011.02 1011.14 1011.38 1011.50 1012.02 1012.38 1012.74 1013.06 1013.30 1013.58
1004.02 1003.66 1003.38 1003.02 1003.02 1002.66 1002.42 1002.06 1001.58 1001.38 1001.22 1001.02 1000.94 1000.74 1000.50 1000.78 1000.62 1000.78 1001.38 1003.34 1004.54 1004.06 1002.54 1001.42 1001.58 1001.90 1002.42 1002.90 1003.22 1003.62 1004.02 1004.38 1004.62 1004.98 1005.26 1005.58 1005.94 1006.38 1006.82 1007.18 1007.50 1007.70 1007.78 1008.02 1008.46 1008.94 1009.34 1009.50 1009.86 1010.02 1010.14 1010.26 1010.34 1010.66 1010.82 1010.74 1011.02 1011.62 1012.02 1012.42 1012.70 1012.98 1013.34
1004.70 1004.42 1004.30 1003.90 1003.46 1002.98 1002.74 1002.22 1001.86 1001.58 1001.34 1000.82 1000.78 1000.78 1000.74 1000.78 1000.58 1000.58 1001.22 1002.86 1003.10 1003.34 1003.54 1002.54 1001.86 1001.70 1002.06 1002.66 1002.90 1003.30 1003.58 1003.98 1004.42 1004.74 1005.02 1005.34 1005.66 1006.14 1006.58 1006.86 1007.18 1007.50 1007.50 1007.74 1007.98 1008.22 1008.62 1008.98 1009.18 1009.66 1009.90 1009.98 1010.14 1010.38 1010.66 1010.34 1010.66 1011.14 1011.62 1011.94 1012.34 1012.74 1013.26
1005.18 1004.78 1004.38 1003.94 1003.50 1003.14 1002.62 1002.22 1001.86 1001.38 1001.02 1000.90 1000.62 1000.50 1000.86 1000.54 1000.34 1000.86 1001.22 1000.86 1000.78 1001.10 1001.86 1002.74 1003.18 1001.86 1001.78 1002.06 1002.34 1002.74 1003.10 1003.50 1004.02 1004.46 1004.74 1005.02 1005.46 1005.82 1006.14 1006.50 1006.82 1007.06 1007.10 1007.62 1007.78 1008.14 1008.50 1008.82 1008.98 1009.14 1009.50 1009.74 1009.94 1010.22 1010.34 1010.30 1010.50 1010.78 1011.18 1011.62 1012.02 1012.78 1013.10
1005.58 1005.14 1004.70 1004.26 1003.66 1003.10 1002.54 1002.06 1001.66 1001.14 1000.86 1000.66 1000.50 1000.18 1000.02 1000.18 1000.22 1000.18 1000.70 1000.70 1000.46 1000.78 1001.06 1001.42 1001.94 1001.66 1001.50 1001.66 1001.74 1002.10 1002.46 1002.86 1003.38 1004.02 1004.38 1004.74 1005.10 1005.30 1005.54 1005.78 1006.14 1006.58 1006.70 1007.30 1007.62 1007.94 1008.02 1008.26 1008.66 1008.78 1008.98 1009.30 1009.58 1009.70 1010.22 1010.14 1010.34 1010.66 1011.06 1011.46 1011.98 1012.26 1012.66
1006.42 1005.90 1005.42 1004.86 1004.42 1003.82 1002.90 1002.38 1002.02 1001.50 1001.06 1000.94 1001.10 1000.54 999.98 999.86 1000.02 999.90 1000.02 1000.18 1000.14 1000.38 1000.70 1000.94 1001.06 1000.94 1001.06 1001.06 1001.06 1001.46 1001.94 1002.42 1002.94 1003.46 1003.90 1004.30 1004.58 1004.82 1005.30 1005.58 1005.90 1006.10 1006.38 1006.78 1007.02 1007.34 1007.54 1007.90 1008.38 1008.62 1008.66 1008.74 1008.98 1009.26 1009.74 1009.82 1010.10 1010.54 1010.82 1011.42 1011.90 1012.10 1012.14
1006.90 1006.42 1005.82 1005.14 1004.50 1003.90 1003.42 1002.82 1002.34 1001.78 1001.18 1000.90 1000.58 999.94 999.66 999.58 999.82 999.94 999.82 999.70 999.78 1000.18 1000.26 1000.02 999.62 999.50 999.86 1000.34 1000.78 1001.22 1001.74 1002.10 1002.66 1003.02 1003.38 1003.90 1004.26 1004.54 1004.94 1005.26 1005.70 1006.02 1006.26 1006.46 1006.66 1007.06 1007.26 1007.58 1007.98 1008.42 1008.54 1008.42 1008.62 1008.94 1009.14 1009.50 1009.70 1010.26 1010.62 1010.98 1011.46 1011.62 1011.70
1007.10 1006.66 1006.22 1005.50 1004.86 1004.38 1003.82 1002.94 1002.22 1001.50 1000.74 1000.14 999.70 999.30 998.94 998.82 999.10 999.34 999.06 999.10 999.42 999.46 998.98 998.62 998.70 999.10 999.66 1000.18 1000.58 1001.02 1001.46 1001.78 1002.26 1002.74 1003.02 1003.38 1003.90 1004.26 1004.70 1004.94 1005.38 1005.66 1006.06 1006.38 1006.46 1006.74 1007.10 1007.38 1007.58 1007.94 1008.18 1008.14 1008.22 1008.42 1008.58 1008.78 1009.22 1009.74 1010.22 1010.58 1010.94 1011.22 1011.34
1006.98 1006.58 1005.98 1005.50 1005.02 1004.54 1003.82 1003.06 1002.26 1001.18 1000.18 999.38 998.86 998.50 998.34 998.38 998.62 998.54 998.46 998.70 998.90 998.46 997.74 997.78 998.22 998.70 999.34 999.98 1000.38 1000.74 1001.22 1001.62 1001.94 1002.38 1002.86 1003.22 1003.66 1004.22 1004.50 1004.54 1004.82 1005.26 1005.66 1005.90 1006.22 1006.66 1006.98 1007.14 1007.34 1007.66 1007.86 1007.82 1007.86 1008.02 1008.14 1008.18 1008.54 1009.18 1009.98 1010.22 1010.54 1010.82 1010.86
1007.50 1007.18 1006.70 1005.90 1005.06 1004.22 1003.94 1003.38 1002.50 1001.22 1000.14 999.34 998.74 998.14 997.62 997.42 997.98 998.10 998.02 998.26 997.94 997.26 997.22 997.46 997.82 998.42 999.06 999.74 1000.26 1000.66 1001.06 1001.42 1001.82 1002.26 1002.46 1002.94 1003.26 1003.70 1004.22 1004.34 1004.70 1005.02 1005.34 1005.78 1006.10 1006.50 1006.86 1007.10 1007.22 1007.50 1007.78 1007.82 1007.74 1007.66 1007.78 1007.86 1008.06 1008.50 1009.30 1010.06 1010.30 1010.50 1010.58
1007.58 1007.34 1006.78 1006.10 1005.58 1004.98 1004.26 1003.58 1002.22 1000.94 999.94 999.30 998.70 998.06 997.38 997.14 997.46 997.54 997.62 997.46 996.54 996.46 996.78 997.18 997.62 998.22 998.98 999.62 1000.02 1000.46 1000.90 1001.30 1001.62 1001.90 1002.14 1002.50 1002.94 1003.34 1003.82 1004.14 1004.38 1004.74 1005.02 1005.34 1005.78 1006.26 1006.70 1006.86 1007.06 1007.34 1007.66 1007.86 1007.82 1007.58 1007.50 1007.50 1007.66 1008.18 1008.50 1009.34 1009.98 1010.22 1010.26
1008.02 1007.74 1007.34 1006.82 1005.98 1004.98 1004.34 1003.30 1002.02 1000.94 1000.02 999.10 998.30 997.82 997.46 996.94 996.94 997.02 997.18 996.46 995.94 996.26 996.66 997.14 997.58 998.22 998.90 999.42 999.82 1000.34 1000.74 1001.14 1001.50 1001.82 1001.98 1002.10 1002.54 1003.22 1003.50 1003.86 1004.14 1004.70 1004.66 1005.02 1005.46 1005.78 1006.30 1006.54 1006.74 1007.22 1007.38 1007.54 1007.70 1007.58 1007.42 1007.26 1007.30 1007.90 1008.34 1008.54 1009.26 1009.70 1009.94
1007.98 1007.62 1007.14 1006.62 1005.82 1004.90 1004.26 1002.94 1001.62 1000.62 1000.02 999.02 998.22 997.90 997.26 996.46 996.10 996.58 996.38 995.70 995.70 995.82 996.30 996.94 997.66 998.26 998.74 999.14 999.62 1000.10 1000.42 1001.18 1001.50 1001.70 1001.82 1001.86 1002.06 1002.54 1002.86 1003.26 1003.66 1004.06 1004.34 1004.70 1005.10 1005.38 1005.82 1006.22 1006.46 1006.82 1007.10 1007.34 1007.34 1007.34 1007.18 1007.06 1007.02 1007.42 1008.06 1008.62 1008.74 1009.14 1009.46
1008.42 1008.02 1007.66 1006.98 1005.94 1005.06 1003.94 1002.70 1001.78 1000.90 1000.26 999.70 998.78 997.94 997.26 996.38 995.38 995.42 995.38 995.54 995.46 995.58 996.10 996.86 997.54 998.18 998.62 999.10 999.42 999.78 1000.22 1000.90 1001.26 1001.50 1001.58 1001.58 1001.74 1002.10 1002.46 1002.70 1003.10 1003.54 1004.02 1004.30 1004.70 1005.02 1005.34 1005.70 1006.02 1006.42 1006.70 1007.02 1006.94 1006.86 1006.86 1006.86 1006.86 1007.06 1007.58 1008.18 1008.70 1009.10 1009.22
1008.70 1007.98 1007.22 1006.58 1005.78 1004.82 1003.62 1002.74 1002.02 1001.10 1000.38 999.82 998.78 998.14 997.42 996.70 995.70 995.06 995.10 995.02 995.06 995.42 996.10 996.94 997.50 998.06 998.46 998.78 999.10 999.62 999.98 1000.50 1000.82 1001.14 1001.30 1001.34 1001.46 1001.94 1002.26 1002.38 1002.50 1002.98 1003.46 1003.66 1003.98 1004.50 1004.98 1005.14 1005.50 1005.82 1006.10 1006.42 1006.42 1006.50 1006.66 1006.70 1006.58 1006.54 1006.86 1007.46 1007.78 1008.18 1008.54
1008.70 1008.18 1007.46 1006.66 1005.58 1004.62 1003.66 1002.90 1002.10 1001.10 1000.42 999.74 998.94 998.22 997.74 997.06 996.34 995.22 995.02 995.10 994.94 995.34 996.18 996.98 997.42 997.74 998.18 998.50 998.90 999.46 999.66 1000.02 1000.42 1000.62 1000.86 1001.02 1001.22 1001.46 1001.90 1002.02 1001.90 1002.34 1002.58 1002.38 1002.50 1003.02 1003.66 1004.22 1004.54 1004.70 1004.82 1005.14 1005.58 1006.02 1006.38 1006.34 1006.30 1005.78 1005.30 1005.90 1006.46 1007.22 1007.98
1008.54 1008.02 1007.30 1006.42 1005.46 1004.50 1003.58 1002.82 1002.30 1001.46 1000.46 999.66 999.02 998.54 998.02 997.54 996.74 996.14 995.34 995.18 995.22 995.54 996.22 996.90 997.34 997.78 998.18 998.26 998.70 999.02 999.46 999.78 999.94 1000.18 1000.38 1000.46 1001.06 1002.18 1002.82 1003.30 1003.06 1002.62 1002.22 1002.30 1002.58 1002.78 1002.82 1002.94 1003.58 1003.62 1003.90 1004.42 1004.42 1004.46 1005.22 1005.50 1005.02 1004.74 1005.06 1005.58 1006.14 1006.58 1006.86
1008.50 1007.90 1007.26 1006.30 1005.38 1004.42 1003.70 1003.10 1002.50 1001.66 1000.62 999.82 999.26 998.86 998.34 997.86 997.26 996.66 996.18 995.98 995.70 995.74 996.22 996.58 997.26 997.62 997.82 998.06 998.26 998.42 998.78 999.14 999.42 999.58 999.82 999.82 1000.66 1001.50 1002.18 1002.86 1003.06 1003.34 1003.38 1003.14 1003.22 1003.14 1003.30 1003.34 1003.30 1003.30 1003.38 1003.62 1004.14 1004.30 1004.42 1004.30 1004.30 1004.62 1004.86 1005.46 1005.86 1006.30 1006.70
1008.46 1008.02 1007.06 1006.10 1005.38 1004.62 1003.90 1003.46 1002.94 1002.18 1000.98 999.90 999.46 999.38 999.06 998.38 997.70 997.22 996.82 996.58 996.38 996.22 996.14 996.34 996.94 997.42 997.54 997.54 997.62 997.90 998.26 998.46 998.74 998.98 999.30 999.42 1000.10 1000.90 1001.46 1001.94 1002.78 1003.46 1003.74 1003.94 1003.82 1003.78 1003.78 1003.86 1003.86 1003.86 1003.86 1003.70 1003.62 1003.94 1004.66 1004.74 1004.66 1004.54 1004.90 1005.26 1005.70 1006.14 1006.54
Wind_Speed
23 23 21 19 18 19 19 18 18 17 16 17 18 19 19 18 16 15 17 18 20 19 17 17 17 16 17 15 14 13 13 12 10 10 9 8 8 7 8 8 8 7 7 7 7 7 5 5 4 7 7 8 6 5 4 4 3 3 2 3 2 2 1
21 21 21 20 20 20 19 17 16 16 15 16 17 18 18 18 16 16 16 18 20 20 20 18 17 16 17 16 14 14 14 13 12 10 10 8 8 7 8 8 8 8 7 7 7 7 5 7 5 5 7 8 7 5 6 5 5 4 4 4 4 3 2
21 19 20 19 19 18 18 20 18 15 17 18 19 20 20 16 17 16 16 18 19 19 19 19 18 18 17 16 15 15 15 14 13 13 13 11 12 13 9 8 8 8 8 7 5 8 7 7 7 5 6 7 8 7 5 6 6 5 4 4 4 4 3
18 19 19 20 19 19 20 20 20 17 16 19 19 21 19 18 18 16 16 19 21 21 21 20 19 19 17 16 16 15 16 15 15 14 15 13 13 11 9 8 8 7 8 8 7 6 8 7 8 6 6 6 6 8 7 6 7 6 6 5 4 5 5
24 20 20 20 21 19 20 19 17 13 12 20 20 17 18 16 18 18 17 19 23 24 24 23 20 19 16 17 15 14 16 17 15 14 14 12 12 11 11 12 10 10 8 9 8 7 5 8 8 8 7 6 6 7 8 7 7 7 6 5 5 5 5
23 21 20 22 20 20 20 20 21 18 16 18 18 15 14 14 17 22 21 21 22 23 21 21 21 19 18 19 17 16 15 15 14 13 13 13 12 12 13 12 12 12 12 9 9 8 8 6 8 9 9 9 8 9 8 9 8 8 7 7 6 6 6
19 18 18 21 21 21 21 20 20 21 19 17 8 5 4 6 5 8 17 22 24 23 24 23 22 21 19 17 16 17 18 18 15 17 14 15 14 13 13 12 12 11 11 9 9 9 9 8 7 9 9 10 9 10 8 8 8 7 7 7 7 6 5
22 20 17 22 23 21 21 20 21 22 19 12 12 10 10 8 9 6 12 19 23 23 24 24 22 20 19 17 17 19 19 19 17 16 14 16 15 14 13 12 12 11 11 11 10 9 10 10 9 8 10 10 10 9 8 8 8 10 7 8 7 7 7
19 21 20 21 23 21 19 19 18 19 18 17 17 15 13 11 12 16 18 17 20 23 24 23 23 21 18 17 17 18 18 18 17 16 17 18 16 18 17 15 13 12 11 12 11 10 9 10 11 9 8 9 8 9 8 7 9 9 8 8 9 8 8
16 16 17 20 22 21 18 19 18 16 17 16 15 15 17 16 16 15 17 16 17 23 25 23 22 21 19 19 20 21 19 18 17 19 19 19 16 18 18 16 15 13 13 13 12 11 10 10 11 10 9 9 9 9 9 8 9 9 9 9 9 9 8
15 13 16 24 20 18 17 16 18 17 18 18 18 19 17 19 19 20 15 16 19 21 24 22 21 20 20 21 22 21 19 21 20 19 20 19 17 19 19 17 16 14 15 14 14 12 11 10 10 10 10 11 10 9 9 9 9 9 10 9 8 9 9
4 12 17 17 23 21 21 19 16 15 18 17 18 19 19 20 21 22 20 21 18 12 19 22 20 21 20 20 20 19 21 20 20 21 21 20 19 19 19 17 16 16 14 15 14 12 12 12 11 10 11 11 11 10 9 9 9 9 10 10 9 9 9
7 13 13 18 21 19 17 15 18 18 17 18 20 21 19 20 21 21 18 16 17 17 18 20 20 18 20 21 21 19 20 21 20 19 20 19 18 17 16 17 18 17 16 15 14 14 14 14 13 11 11 12 11 12 10 10 10 9 10 10 9 9 9
4 15 13 12 17 18 16 15 17 17 17 18 21 21 18 19 20 19 17 18 18 18 16 16 19 18 18 19 18 17 21 20 19 18 17 16 14 14 16 17 16 15 14 13 15 15 15 15 15 12 11 12 12 11 10 10 11 10 10 10 9 9 10
10 6 9 15 13 11 12 14 13 16 18 19 21 20 20 19 19 16 14 15 13 14 16 17 17 19 20 18 17 17 18 16 16 15 15 15 14 14 14 15 14 13 13 13 14 14 15 14 15 14 13 12 11 11 11 11 11 10 11 11 11 9 10
13 5 4 5 8 8 6 10 12 12 15 16 17 18 20 17 17 15 15 13 16 13 17 19 18 16 18 19 17 16 16 15 14 14 14 15 14 14 13 13 13 15 14 14 14 12 11 11 11 14 14 13 12 12 11 10 10 12 17 15 11 10 10
11 12 10 5 2 9 9 3 5 9 14 14 14 16 16 14 17 17 16 14 16 18 16 18 17 16 17 17 17 15 15 14 14 14 15 15 14 14 13 13 13 13 12 12 14 13 12 11 12 13 14 14 13 14 12 12 11 16 16 17 17 12 10
10 7 6 8 8 7 8 12 6 3 6 2 3 3 9 10 14 15 18 16 14 14 14 18 19 18 16 16 15 15 16 15 15 15 15 14 15 15 14 13 12 12 12 12 13 12 11 12 12 11 12 13 14 14 13 12 13 17 18 18 17 14 10
13 11 8 4 5 9 12 11 11 13 5 7 9 9 10 11 10 10 12 14 15 16 16 17 17 16 15 15 16 16 16 15 16 16 15 15 15 15 14 14 13 13 13 14 12 12 12 11 12 11 10 11 13 13 13 12 14 16 19 19 18 18 13
11 12 14 13 9 9 8 8 10 9 9 8 5 11 11 14 18 17 13 13 10 14 18 19 18 16 16 15 15 15 15 15 16 16 16 15 15 14 15 15 14 13 13 12 11 11 12 13 12 11 10 9 10 12 12 13 13 18 19 20 20 19 15
14 15 12 9 10 11 9 10 8 9 7 5 8 7 5 10 13 10 5 1 9 13 16 17 15 15 15 15 14 14 15 15 15 16 15 15 15 15 15 16 14 14 12 12 12 11 12 13 12 11 11 11 10 8 12 12 16 18 20 20 21 20 14
15 14 13 12 13 10 9 11 11 10 9 8 8 7 8 11 12 14 12 19 19 14 10 11 12 15 15 14 14 15 16 16 15 14 14 15 15 15 16 15 15 14 12 11 11 11 10 11 11 11 12 11 11 11 10 11 17 19 20 21 21 21 11
16 15 15 14 14 15 14 12 12 12 9 10 11 10 7 10 13 15 15 14 13 10 14 13 14 12 15 16 16 16 16 16 16 15 15 15 16 16 16 16 15 14 11 11 11 11 12 11 12 10 11 12 11 12 10 8 13 19 21 21 22 15 9
16 16 16 16 15 16 14 13 12 13 12 12 11 10 7 11 11 13 14 13 13 13 14 14 15 13 14 16 16 16 16 16 16 16 15 15 17 16 16 15 13 14 12 12 11 12 13 12 11 11 12 13 13 12 10 10 10 18 18 20 20 17 12
15 16 17 16 17 17 17 16 16 17 15 13 14 13 11 11 15 16 13 12 16 15 14 17 21 17 16 16 17 15 16 15 15 16 16 16 16 15 15 15 14 13 12 12 12 11 10 10 11 11 11 13 13 14 13 12 9 16 18 19 19 16 11
17 18 18 17 17 16 18 18 17 17 16 15 14 14 15 14 14 17 15 17 17 17 18 17 16 16 16 16 14 13 13 14 15 15 16 15 14 13 12 11 11 13 13 13 12 11 11 12 12 13 12 12 13 11 12 14 9 14 19 20 21 21 13
16 16 18 19 18 19 17 16 16 17 17 13 11 14 14 14 14 17 17 17 16 20 20 20 16 14 12 14 14 14 15 14 15 16 15 13 14 13 12 12 12 13 13 14 14 12 11 12 12 13 12 12 11 11 14 13 11 13 20 20 22 23 18
18 18 18 18 19 18 17 17 18 19 18 15 13 14 14 12 11 11 11 15 17 17 16 13 13 13 13 14 15 15 15 15 13 14 14 13 13 13 13 12 13 13 14 14 12 13 12 11 10 11 10 10 11 11 11 13 17 10 18 21 22 23 23
18 19 19 20 21 22 20 18 19 19 17 15 16 15 14 14 12 12 10 14 19 18 16 12 13 14 13 14 14 13 14 14 15 14 15 15 15 15 14 13 14 13 13 13 12 12 12 11 10 10 9 9 9 9 10 9 12 16 16 19 21 23 23
18 18 19 20 20 21 22 21 19 18 17 16 16 15 13 10 9 11 12 14 16 16 12 10 12 13 13 13 14 13 13 14 16 17 16 15 14 14 14 14 14 13 12 13 12 11 11 11 11 9 9 9 9 9 9 9 7 13 19 18 22 22 24
17 17 18 20 22 22 21 19 20 19 19 17 16 12 13 12 9 11 13 11 11 12 10 11 13 14 14 14 14 13 12 13 13 15 14 13 15 14 14 14 14 12 11 12 11 11 11 11 10 10 10 9 9 8 8 8 8 8 14 22 22 23 23
17 18 20 21 21 21 20 20 20 18 17 16 12 11 12 13 11 10 10 10 10 11 10 12 13 14 14 14 13 13 14 14 15 14 16 15 14 13 13 15 14 12 12 12 11 10 11 10 10 10 10 10 9 9 9 8 9 7 8 11 18 18 23
17 17 18 20 21 21 19 17 17 16 16 14 12 12 12 13 9 7 8 9 12 11 11 11 13 13 13 13 13 13 13 15 14 14 16 15 14 13 12 12 12 11 12 11 12 11 11 11 11 10 11 11 10 9 9 9 9 8 8 8 7 8 12
15 15 17 18 19 20 18 16 16 16 14 13 11 11 12 12 8 7 6 12 14 12 11 12 13 13 14 15 13 12 12 13 15 15 13 13 13 14 14 11 14 14 13 13 13 14 12 11 11 12 12 12 11 9 9 10 9 10 9 10 9 8 7
14 13 17 20 20 19 16 15 16 16 14 11 10 10 11 10 11 3 7 5 9 11 12 12 13 13 14 13 12 11 12 12 12 11 13 12 12 10 5 10 14 13 12 11 12 12 14 13 13 13 13 12 11 11 11 11 12 12 10 13 16 13 10
15 16 16 18 16 16 15 15 17 16 13 9 8 10 8 11 7 11 3 4 5 7 12 12 12 12 12 13 12 12 12 12 13 13 13 14 12 7 6 10 12 7 6 11 5 5 4 9 10 10 10 9 9 10 11 11 10 10 13 18 20 19 19
15 15 16 18 17 16 14 16 18 17 13 8 7 8 10 7 9 9 10 10 5 5 11 12 12 11 12 12 12 14 14 14 13 14 12 13 10 9 8 6 8 14 14 12 6 7 10 7 6 5 4 8 9 4 7 0 10 13 15 16 20 20 18
14 13 14 14 15 14 15 16 18 19 14 9 6 5 7 8 7 7 9 9 10 6 7 13 11 12 11 12 12 14 14 14 13 13 13 11 10 9 10 9 7 6 12 14 10 10 11 10 10 8 5 3 2 8 3 5 5 14 15 18 20 19 18
Wind_Direction
184 182 188 190 185 189 192 193 195 199 190 184 187 196 195 189 188 184 182 180 182 181 183 182 182 181 182 184 182 183 182 182 181 182 182 183 184 177 173 179 186 188 185 185 187 199 190 217 187 176 165 174 188 202 184 170 178 195 185 189 182 269 200
180 185 187 185 186 189 191 190 198 199 184 180 183 191 199 190 188 186 181 179 182 183 184 185 183 183 184 184 184 182 183 183 183 181 183 182 184 186 180 181 185 188 193 191 179 186 192 190 211 176 169 169 185 188 187 174 180 193 194 179 195 188 219
179 183 179 185 188 189 190 193 195 202 190 191 192 193 195 193 191 189 179 178 181 185 186 187 186 185 185 183 183 184 184 183 181 182 184 186 186 192 190 186 188 188 197 202 188 175 188 190 188 198 176 175 184 185 182 179 182 193 200 180 189 197 194
178 180 188 189 186 188 192 192 192 196 197 193 191 190 191 193 191 187 184 181 182 185 188 189 187 188 186 182 183 184 185 185 184 184 188 189 188 192 190 191 191 197 192 199 207 199 187 185 179 194 193 178 181 174 186 189 187 189 198 193 195 198 188
180 176 180 182 189 190 189 190 187 183 181 193 193 191 190 192 188 190 188 187 188 189 190 189 188 190 189 184 185 185 186 185 184 186 188 189 188 190 193 195 195 201 198 195 200 202 206 172 180 184 193 190 188 175 180 187 189 184 193 196 198 204 195
172 179 179 182 184 184 188 191 188 183 186 190 192 184 182 182 195 199 198 192 193 194 192 190 191 190 189 187 184 183 183 185 186 184 187 187 185 189 193 195 196 198 204 199 195 198 201 189 182 182 190 195 198 195 187 185 195 186 188 192 199 206 207
174 186 182 174 180 185 186 186 187 187 188 189 152 121 111 140 176 225 210 200 195 193 193 193 194 191 191 186 185 180 181 184 183 186 186 189 188 189 192 196 197 195 203 198 200 194 195 202 194 184 188 194 197 202 190 188 187 191 184 188 194 206 209
170 182 196 173 179 177 182 189 191 190 184 168 148 156 172 176 156 163 240 223 202 197 197 194 192 191 187 186 183 183 182 184 183 186 186 191 191 192 191 194 197 196 194 201 197 196 195 195 201 195 187 195 192 200 197 186 180 187 187 184 193 199 209
179 182 183 167 173 177 181 183 186 182 177 174 167 170 173 183 186 188 207 226 211 201 196 195 192 189 186 186 183 182 181 182 183 183 188 190 191 196 196 196 196 196 197 200 201 196 201 188 198 199 196 196 194 191 202 188 185 186 190 186 189 196 210
193 180 175 155 162 173 179 181 181 179 179 177 174 172 182 186 193 196 202 205 212 204 198 195 193 190 187 186 186 183 180 181 181 185 187 191 193 195 197 197 197 194 199 199 205 197 196 195 190 196 197 199 197 192 194 195 187 189 194 190 188 194 204
191 178 163 164 165 166 173 177 180 176 177 182 183 185 181 187 193 196 192 192 201 212 205 197 192 190 187 188 186 183 181 183 183 185 187 191 193 195 197 196 195 194 197 200 204 201 191 196 191 190 193 198 201 198 194 195 191 189 195 198 191 191 199
256 166 158 156 157 171 181 184 182 178 179 181 179 181 185 191 195 197 191 197 203 203 211 199 194 191 186 187 186 184 184 183 184 185 187 190 192 194 195 196 195 193 195 199 202 202 194 190 195 192 190 196 198 200 197 195 193 191 195 200 199 194 198
214 157 157 154 162 169 172 167 175 179 177 180 184 187 185 189 193 196 189 189 197 191 209 205 197 190 186 187 188 184 185 185 185 185 187 189 192 192 193 197 196 196 195 197 202 202 203 192 194 196 193 192 196 199 198 194 195 192 194 199 200 195 196
7 158 151 137 144 157 162 168 172 173 175 181 187 189 189 187 193 196 189 189 193 195 203 210 200 189 184 187 187 184 186 187 186 186 185 187 189 191 192 194 196 194 191 191 198 202 204 200 193 193 196 192 196 199 196 193 195 194 195 200 202 195 193
63 83 154 132 128 151 145 154 166 173 180 186 188 192 193 189 190 190 187 190 193 198 207 210 198 190 185 186 188 184 186 184 185 184 183 185 187 191 191 193 194 192 189 186 195 201 204 206 195 191 196 196 194 198 198 197 197 197 195 197 203 204 196
36 53 17 109 101 110 134 162 172 178 181 185 190 193 195 189 185 186 186 185 186 195 211 212 197 191 188 187 188 184 183 182 181 184 183 184 186 190 192 193 193 195 192 187 191 195 201 204 202 190 191 195 193 195 201 202 201 198 195 192 197 203 206
39 40 51 113 316 26 3 311 183 175 188 186 195 191 198 184 184 189 191 189 197 197 198 209 199 192 189 187 186 180 180 180 182 181 183 183 184 187 193 195 193 195 194 192 187 194 195 200 203 199 190 195 197 197 202 207 206 193 190 192 195 198 205
20 14 47 45 61 22 6 11 4 56 77 193 189 251 206 192 191 194 199 197 191 185 197 214 211 196 192 185 180 180 179 183 181 182 183 181 183 186 191 195 194 193 194 194 188 189 189 198 203 204 194 190 197 200 202 206 204 185 188 190 194 198 202
0 8 6 345 74 31 7 2 12 1 37 140 149 175 254 323 311 225 202 204 198 191 202 212 205 193 190 185 181 181 182 181 182 183 183 184 183 183 186 192 195 195 193 195 191 182 190 196 201 206 206 194 190 200 201 207 199 182 185 189 193 199 202
13 17 23 12 348 354 355 344 358 348 331 331 221 187 185 190 211 236 211 219 221 200 196 202 202 187 186 187 181 181 181 182 183 185 185 184 182 182 186 190 195 196 193 193 190 187 191 195 198 204 207 209 194 193 199 205 187 181 184 188 191 196 200
6 0 5 353 351 351 349 332 333 319 323 326 331 323 248 226 219 212 168 73 256 241 223 206 198 185 183 185 180 178 182 184 187 187 185 183 182 183 186 189 194 196 195 194 192 191 190 194 197 200 206 210 211 198 196 206 178 179 183 188 190 195 196
354 353 350 345 333 327 324 320 324 320 315 311 281 274 265 240 238 246 186 184 211 219 246 240 210 186 179 181 180 180 183 185 187 187 186 184 183 184 186 188 191 193 194 194 194 194 188 193 200 199 202 206 210 216 206 204 172 179 183 187 191 189 187
346 343 341 335 331 323 324 317 307 300 294 285 283 267 265 264 228 219 231 219 202 173 198 205 232 204 181 183 182 181 182 186 187 188 188 185 185 187 187 188 189 192 192 195 194 190 190 191 198 199 202 204 206 214 216 207 178 180 184 185 187 178 185
342 337 336 331 325 319 312 307 299 292 290 291 283 276 235 250 253 231 216 213 211 206 204 214 217 207 187 186 185 182 183 185 186 188 187 187 190 189 189 187 187 190 189 195 192 192 192 193 196 201 207 205 206 206 207 217 177 182 183 186 179 177 185
335 333 329 325 322 317 312 312 311 301 295 287 278 276 269 233 243 246 213 206 208 204 208 199 205 202 190 188 187 182 182 184 185 188 188 190 191 189 187 187 187 187 188 194 197 195 191 193 197 202 206 208 207 202 203 216 181 182 176 181 178 184 191
334 331 326 323 319 318 316 309 301 293 281 271 261 253 252 248 227 237 231 208 204 209 209 213 210 197 192 187 182 179 178 182 185 188 189 187 186 185 184 182 181 187 189 195 197 196 196 195 199 203 206 206 208 199 200 210 192 179 181 178 181 185 186
334 328 324 322 319 320 309 302 295 288 284 278 276 277 266 249 224 221 222 203 206 209 206 204 203 189 181 179 181 179 180 182 185 185 185 184 183 180 182 181 185 187 190 194 198 198 198 197 198 203 203 205 204 205 201 207 201 178 182 183 182 189 188
335 333 326 322 317 313 312 308 301 290 284 281 272 265 252 245 239 228 212 199 207 209 210 203 183 179 177 178 183 181 179 181 181 182 184 182 181 183 186 185 187 189 188 196 196 196 196 197 197 201 201 201 198 205 206 197 203 167 189 185 187 188 194
338 333 329 324 321 319 315 310 301 295 293 295 290 281 272 246 225 233 227 209 205 207 203 189 177 176 174 176 179 180 178 179 178 180 191 191 187 185 185 181 187 188 187 193 194 194 195 195 199 201 200 200 198 200 204 197 199 170 179 191 189 192 197
335 331 327 322 316 311 311 304 295 294 297 294 288 284 278 261 226 227 229 219 203 196 188 170 167 167 170 173 179 176 177 179 184 188 194 191 186 188 184 184 189 189 187 189 191 191 193 192 195 201 203 204 200 203 202 199 193 172 175 182 192 196 198
330 327 323 319 313 308 305 300 301 299 292 283 278 297 298 281 240 227 224 213 192 178 170 162 163 166 169 172 174 176 174 178 187 191 195 193 188 188 187 186 187 190 186 186 190 190 189 189 191 197 203 206 204 202 201 193 186 160 180 179 188 195 200
327 327 324 319 313 309 306 300 294 292 297 299 308 316 315 276 240 229 216 197 178 171 161 158 162 166 168 171 173 176 175 179 188 192 200 198 193 190 190 190 188 190 183 184 189 189 186 187 187 192 198 205 206 203 202 193 201 168 165 184 188 194 201
323 321 317 310 305 301 299 305 302 298 301 305 323 320 319 305 233 223 196 181 169 169 154 158 161 165 166 168 173 175 178 182 188 194 202 202 195 192 190 192 190 189 183 182 187 189 190 185 186 189 194 204 206 205 202 201 201 184 163 170 174 195 201
316 314 313 305 299 302 306 312 308 302 304 310 310 324 320 335 300 170 182 169 175 155 149 154 164 165 169 168 171 178 181 184 191 196 199 196 190 190 191 190 194 193 183 185 186 190 190 187 189 190 194 199 202 200 200 206 205 204 179 178 177 181 173
311 312 315 309 305 307 311 316 310 306 304 299 315 320 332 334 346 295 167 175 176 143 152 155 164 165 166 169 171 180 181 186 192 192 199 192 188 183 186 202 196 190 189 191 190 192 188 191 192 193 198 196 196 195 200 203 208 210 197 176 183 174 174
320 318 313 307 303 310 317 325 320 311 298 304 315 321 325 342 348 357 348 158 173 142 152 152 162 167 170 172 176 180 181 187 191 189 198 192 178 114 106 55 55 27 192 183 113 105 191 195 193 191 192 196 196 197 200 203 208 191 178 161 174 182 180
318 319 317 310 315 314 331 337 327 320 309 311 315 331 338 338 356 6 3 359 330 171 155 161 163 173 175 178 185 184 185 188 192 190 196 191 151 152 125 111 57 49 46 42 67 88 79 78 95 139 175 192 194 120 47 206 170 171 171 158 172 175 173
318 308 316 322 329 324 344 343 334 323 314 314 331 343 311 332 353 13 4 355 349 338 179 166 169 176 182 187 186 183 184 189 190 187 190 180 152 146 149 141 136 81 37 41 50 60 67 62 52 51 50 44 128 140 67 61 136 151 157 165 168 171 170